EET,Max TemperatureF,Mean TemperatureF,Min TemperatureF,Max Dew PointF,MeanDew PointF,Min DewpointF,Max Humidity, Mean Humidity, Min Humidity, Max Sea Level PressureIn, Mean Sea Level PressureIn, Min Sea Level PressureIn, Max VisibilityMiles, Mean VisibilityMiles, Min VisibilityMiles, Max Wind SpeedMPH, Mean Wind SpeedMPH, Max Gust SpeedMPH,PrecipitationIn, CloudCover, Events, WindDirDegrees
2012-9-1,87,77,67,72,69,64,94,71,51,29.89,29.86,29.83,6,6,6,14,5,,0.00,2,,309
2012-9-2,86,80,75,73,71,70,89,72,53,29.93,29.90,29.86,6,6,6,13,9,,0.00,2,,332
2012-9-3,86,81,76,73,72,72,83,73,55,29.89,29.85,29.80,6,6,6,16,10,,0.00,3,,331
2012-9-4,86,82,77,73,72,72,83,73,55,29.84,29.82,29.80,6,6,6,13,10,,0.00,2,,342
2012-9-5,86,81,76,72,71,70,83,72,53,29.89,29.85,29.83,6,6,6,13,10,,0.00,2,,336
2012-9-6,87,82,76,72,70,63,83,68,45,29.89,29.87,29.86,6,6,6,15,11,,0.00,1,,334
2012-9-7,88,82,77,72,71,70,78,69,51,29.89,29.86,29.83,6,6,6,13,9,,0.00,3,,312
2012-9-8,87,82,76,73,70,64,83,67,53,29.86,29.80,29.77,6,6,6,15,8,,0.00,3,,318
2012-9-9,85,80,76,72,69,66,83,68,50,29.83,29.80,29.77,6,6,6,15,12,,0.00,3,,320
2012-9-10,86,81,76,73,72,70,89,75,56,29.89,29.85,29.80,6,6,6,15,10,,0.00,3,,325
2012-9-11,84,79,74,72,69,68,89,71,49,29.91,29.87,29.86,6,6,6,16,9,,0.00,2,,327
2012-9-12,86,80,73,70,68,66,88,68,49,29.92,29.88,29.86,6,6,6,10,7,,0.00,3,,333
2012-9-13,86,77,68,69,64,59,94,63,39,29.98,29.91,29.86,6,6,6,12,8,,0.00,3,,353
2012-9-14,87,76,65,66,65,48,94,66,25,29.99,29.96,29.92,6,6,6,10,3,,0.00,2,,37
2012-9-15,85,74,63,70,67,63,94,74,51,29.95,29.86,29.77,6,6,6,12,3,,0.00,1,,26
2012-9-16,93,80,66,70,65,52,100,66,26,29.83,29.80,29.77,6,4,4,9,4,,0.00,,,87
2012-9-17,92,80,68,70,65,59,94,63,26,29.89,29.84,29.80,6,4,4,7,3,,0.00,,,50
2012-9-18,87,78,68,73,71,66,100,75,57,29.92,29.89,29.86,6,6,6,12,4,,0.00,2,,12
2012-9-19,85,80,75,72,69,66,89,71,46,29.95,29.90,29.86,6,6,6,10,6,,0.00,1,,355
2012-9-20,84,76,68,70,69,66,94,72,54,29.98,29.93,29.92,6,6,6,12,6,,0.00,2,,337
2012-9-21,85,78,70,72,69,66,88,69,55,29.99,29.96,29.95,6,6,6,12,5,,0.00,3,,342
2012-9-22,85,78,71,70,67,63,83,66,47,30.01,29.97,29.94,6,6,6,10,6,,0.00,3,,352
2012-9-23,84,79,74,68,64,61,74,60,41,30.04,29.99,29.95,6,6,6,14,10,,0.00,2,,333
2012-9-24,81,78,74,66,63,61,73,61,42,29.98,29.94,29.89,6,6,6,12,8,,0.00,2,,341
2012-9-25,83,78,72,66,65,64,78,63,45,29.95,29.91,29.86,6,6,6,10,6,,0.00,2,,347
2012-9-26,84,74,65,68,66,64,94,69,51,29.97,29.94,29.92,6,6,6,14,4,,0.00,3,,11
2012-9-27,85,75,65,67,65,61,94,68,38,29.98,29.93,29.89,6,6,6,12,4,,0.00,1,,18
2012-9-28,84,74,64,66,64,63,94,72,41,29.98,29.95,29.92,6,6,6,9,2,,0.00,3,,267
2012-9-29,85,74,64,72,68,63,94,75,54,30.01,29.95,29.86,6,6,4,10,3,,0.00,3,,312
2012-9-30,85,78,70,70,68,64,88,71,52,30.01,29.97,29.95,6,6,6,9,6,,0.00,3,,306